Stündliche Wetter Abancay

Heute, 25 Juni, Freitag

Zeit Temperatur Niederschläge Wind Luftdruck Luftfeuchtigkeit
00:00 +11°C° 0 mm 1 m/S 543 mmHg 89%
01:00 +12°C° 0 mm 1 m/S 543 mmHg 88%
02:00 +12°C° 0 mm 1 m/S 543 mmHg 87%
03:00 +12°C° 0 mm 1 m/S 543 mmHg 87%
04:00 +12°C° 0 mm 1 m/S 543 mmHg 86%
05:00 +12°C° 0 mm 1 m/S 543 mmHg 84%
06:00 +12°C° 0 mm 1 m/S 543 mmHg 81%
07:00 +12°C° 0 mm 1 m/S 544 mmHg 78%
08:00 +13°C° 0 mm 1 m/S 544 mmHg 71%
09:00 +15°C° 0 mm 1 m/S 545 mmHg 64%
10:00 +16°C° 0 mm 2 m/S 546 mmHg 57%
11:00 +17°C° 0 mm 2 m/S 546 mmHg 52%
12:00 +18°C° 0 mm 2 m/S 545 mmHg 47%
13:00 +19°C° 0 mm 3 m/S 545 mmHg 42%
14:00 +19°C° 0 mm 3 m/S 545 mmHg 42%
15:00 +19°C° 0 mm 3 m/S 544 mmHg 42%
16:00 +19°C° 0 mm 3 m/S 544 mmHg 43%
17:00 +17°C° 0 mm 2 m/S 543 mmHg 56%
18:00 +14°C° 0 mm 2 m/S 543 mmHg 68%
19:00 +12°C° 0 mm 2 m/S 542 mmHg 81%
20:00 +12°C° 0.1 mm 2 m/S 543 mmHg 84%
21:00 +12°C° 0.1 mm 1 m/S 543 mmHg 88%
22:00 +11°C° 0.1 mm 1 m/S 543 mmHg 91%
23:00 +11°C° 0 mm 1 m/S 543 mmHg 91%

Morgen, 26 Juni, Samstag

Zeit Temperatur Niederschläge Wind Luftdruck Luftfeuchtigkeit
00:00 +11°C° 0 mm 1 m/S 542 mmHg 91%
01:00 +10°C° 0 mm 1 m/S 542 mmHg 91%
02:00 +11°C° 0 mm 1 m/S 542 mmHg 88%
03:00 +11°C° 0 mm 1 m/S 542 mmHg 85%
04:00 +10°C° 0 mm 0 m/S 542 mmHg 82%
05:00 +10°C° 0 mm 0 m/S 542 mmHg 80%
06:00 +10°C° 0 mm 0 m/S 543 mmHg 78%
07:00 +10°C° 0 mm 0 m/S 543 mmHg 76%
08:00 +13°C° 0 mm 1 m/S 544 mmHg 68%
09:00 +15°C° 0 mm 1 m/S 545 mmHg 61%
10:00 +16°C° 0 mm 1 m/S 545 mmHg 53%
11:00 +18°C° 0 mm 2 m/S 545 mmHg 48%
12:00 +19°C° 0 mm 3 m/S 545 mmHg 43%
13:00 +21°C° 0 mm 3 m/S 545 mmHg 38%
14:00 +20°C° 0 mm 3 m/S 544 mmHg 38%
15:00 +20°C° 0 mm 3 m/S 544 mmHg 39%
16:00 +19°C° 0 mm 3 m/S 543 mmHg 40%
17:00 +17°C° 0 mm 3 m/S 543 mmHg 53%
18:00 +14°C° 0 mm 2 m/S 542 mmHg 65%
19:00 +12°C° 0 mm 2 m/S 542 mmHg 78%
20:00 +10°C° 0 mm 2 m/S 542 mmHg 82%
21:00 +11°C° 0 mm 1 m/S 542 mmHg 85%
22:00 +10°C° 0 mm 1 m/S 542 mmHg 89%
23:00 +10°C° 0 mm 1 m/S 542 mmHg 88%

übermorgen, 27 Juni, Sonntag

Zeit Temperatur Niederschläge Wind Luftdruck Luftfeuchtigkeit
00:00 +11°C° 0 mm 1 m/S 542 mmHg 87%
01:00 +11°C° 0 mm 1 m/S 542 mmHg 85%
02:00 +11°C° 0 mm 1 m/S 542 mmHg 82%
03:00 +10°C° 0 mm 0 m/S 542 mmHg 79%
04:00 +10°C° 0 mm 0 m/S 542 mmHg 75%
05:00 +10°C° 0 mm 0 m/S 542 mmHg 76%
06:00 +10°C° 0 mm 0 m/S 543 mmHg 76%
07:00 +9°C° 0 mm 0 m/S 543 mmHg 76%
08:00 +12°C° 0 mm 1 m/S 544 mmHg 68%
09:00 +14°C° 0 mm 1 m/S 545 mmHg 60%
10:00 +16°C° 0 mm 2 m/S 545 mmHg 51%
11:00 +17°C° 0 mm 2 m/S 545 mmHg 47%
12:00 +19°C° 0 mm 3 m/S 545 mmHg 43%
13:00 +20°C° 0 mm 3 m/S 545 mmHg 38%
14:00 +19°C° 0 mm 3 m/S 545 mmHg 39%
15:00 +19°C° 0 mm 3 m/S 544 mmHg 41%
16:00 +19°C° 0 mm 3 m/S 544 mmHg 42%
17:00 +16°C° 0 mm 3 m/S 543 mmHg 54%
18:00 +14°C° 0 mm 2 m/S 543 mmHg 67%
19:00 +12°C° 0 mm 2 m/S 543 mmHg 79%
20:00 +10°C° 0 mm 2 m/S 543 mmHg 83%
21:00 +11°C° 0 mm 1 m/S 543 mmHg 87%
22:00 +10°C° 0 mm 1 m/S 544 mmHg 91%
23:00 +10°C° 0 mm 1 m/S 544 mmHg 90%

28 Juni, Montag

Zeit Temperatur Niederschläge Wind Luftdruck Luftfeuchtigkeit
00:00 +10°C° 0 mm 1 m/S 544 mmHg 88%
01:00 +10°C° 0 mm 1 m/S 544 mmHg 87%
02:00 +10°C° 0 mm 1 m/S 544 mmHg 85%
03:00 +10°C° 0 mm 1 m/S 543 mmHg 83%
04:00 +10°C° 0 mm 1 m/S 543 mmHg 82%
05:00 +9°C° 0 mm 0 m/S 544 mmHg 79%
06:00 +9°C° 0 mm 0 m/S 544 mmHg 76%
07:00 +9°C° 0 mm 0 m/S 545 mmHg 74%
08:00 +12°C° 0 mm 1 m/S 545 mmHg 67%
09:00 +14°C° 0 mm 1 m/S 546 mmHg 60%
10:00 +15°C° 0 mm 2 m/S 547 mmHg 52%
11:00 +16°C° 0 mm 2 m/S 546 mmHg 49%
12:00 +17°C° 0 mm 2 m/S 546 mmHg 46%
13:00 +18°C° 0 mm 3 m/S 546 mmHg 43%
14:00 +18°C° 0 mm 3 m/S 546 mmHg 42%
15:00 +18°C° 0 mm 3 m/S 545 mmHg 42%
16:00 +18°C° 0 mm 3 m/S 545 mmHg 42%
17:00 +16°C° 0 mm 2 m/S 544 mmHg 54%
18:00 +14°C° 0 mm 2 m/S 543 mmHg 66%
19:00 +11°C° 0 mm 1 m/S 543 mmHg 78%
20:00 +11°C° 0 mm 1 m/S 543 mmHg 83%
21:00 +10°C° 0 mm 1 m/S 543 mmHg 87%
22:00 +9°C° 0 mm 1 m/S 544 mmHg 92%
23:00 +10°C° 0 mm 1 m/S 544 mmHg 90%

29 Juni, Dienstag

Zeit Temperatur Niederschläge Wind Luftdruck Luftfeuchtigkeit
00:00 +10°C° 0 mm 1 m/S 544 mmHg 88%
01:00 +10°C° 0 mm 1 m/S 544 mmHg 87%
02:00 +10°C° 0 mm 1 m/S 544 mmHg 85%
03:00 +9°C° 0 mm 0 m/S 544 mmHg 83%
04:00 +9°C° 0 mm 0 m/S 544 mmHg 82%
05:00 +9°C° 0 mm 0 m/S 544 mmHg 81%
06:00 +9°C° 0 mm 0 m/S 544 mmHg 80%
07:00 +10°C° 0 mm 0 m/S 545 mmHg 79%
08:00 +12°C° 0 mm 1 m/S 546 mmHg 71%
09:00 +14°C° 0 mm 1 m/S 546 mmHg 64%
10:00 +15°C° 0 mm 1 m/S 547 mmHg 56%
11:00 +16°C° 0 mm 2 m/S 547 mmHg 51%
12:00 +18°C° 0 mm 2 m/S 547 mmHg 46%
13:00 +19°C° 0 mm 3 m/S 546 mmHg 41%
14:00 +19°C° 0 mm 3 m/S 546 mmHg 41%
15:00 +19°C° 0 mm 3 m/S 545 mmHg 41%
16:00 +19°C° 0 mm 3 m/S 545 mmHg 41%
17:00 +16°C° 0 mm 2 m/S 544 mmHg 56%
18:00 +13°C° 0 mm 2 m/S 544 mmHg 71%
19:00 +10°C° 0 mm 2 m/S 543 mmHg 86%
20:00 +11°C° 0 mm 1 m/S 543 mmHg 88%
21:00 +10°C° 0 mm 1 m/S 544 mmHg 90%
22:00 +10°C° 0 mm 1 m/S 544 mmHg 93%
23:00 +10°C° 0 mm 1 m/S 544 mmHg 91%

30 Juni, Mittwoch

Zeit Temperatur Niederschläge Wind Luftdruck Luftfeuchtigkeit
00:00 +10°C° 0 mm 1 m/S 544 mmHg 89%
01:00 +10°C° 0 mm 1 m/S 544 mmHg 87%
02:00 +10°C° 0 mm 1 m/S 544 mmHg 86%
03:00 +10°C° 0 mm 1 m/S 543 mmHg 85%
04:00 +10°C° 0 mm 1 m/S 543 mmHg 84%
05:00 +10°C° 0 mm 1 m/S 544 mmHg 82%
06:00 +10°C° 0 mm 1 m/S 544 mmHg 81%
07:00 +10°C° 0 mm 0 m/S 544 mmHg 80%
08:00 +11°C° 0 mm 1 m/S 545 mmHg 74%
09:00 +12°C° 0 mm 1 m/S 545 mmHg 68%
10:00 +13°C° 0 mm 1 m/S 546 mmHg 62%
11:00 +15°C° 0 mm 2 m/S 546 mmHg 56%
12:00 +16°C° 0 mm 2 m/S 546 mmHg 50%
13:00 +18°C° 0 mm 3 m/S 546 mmHg 45%
14:00 +18°C° 0 mm 3 m/S 545 mmHg 44%
15:00 +18°C° 0 mm 3 m/S 545 mmHg 44%
16:00 +18°C° 0 mm 3 m/S 544 mmHg 44%
17:00 +16°C° 0 mm 2 m/S 544 mmHg 53%
18:00 +13°C° 0 mm 2 m/S 543 mmHg 63%
19:00 +11°C° 0 mm 1 m/S 543 mmHg 73%
20:00 +10°C° 0 mm 1 m/S 543 mmHg 77%
21:00 +10°C° 0 mm 1 m/S 543 mmHg 81%
22:00 +9°C° 0 mm 1 m/S 543 mmHg 85%
23:00 +9°C° 0 mm 1 m/S 543 mmHg 86%
Mehr zeigen

Wir brauchen deine Erlaubnis

Meteoprog und unser Service Anbieter werden persönliche Daten aufbewahren, so wie Cookies, Geräte Bezeichnung oder ähnliche Technologien von deinem Gerät und Prozess, so wie Persönliche Daten Inhalte und Werbungen, genauso wie social Media und den Verkehr zu analysieren.

  • Aufbewahrung und/oder Zugang zu deiner Geräte Informationen.

    Cookies, Geräte Bezeichnung oder andere Informationen, können aufbewahrt oder Zugang zu deinem Gerät erhalten, für den Grund, der oben angegeben wird.

  • Personalisierte Werbung und Inhalte, Messungen, Einblick in das Publikum und Produkt Entwicklung.

    Werbungen und Inhalte können personalisiert werden, basierend auf ein Profil. Mehr Daten können besser personalisierte Werbungen und Inhalte hinzufügen. Werbung und Inhalte können gezeigt und gemessen werden. Einblicke über das Publikum, welche die Werbung gesehen haben und den Inhalt, können abgeleitet werden. So wie Daten können genutzt werden, um es zu verbessern oder die Benutzer Erfahrung zu verbessern das System und die Software.

Wenn du “Ich stimme zu” klickst, erlaubst du uns, die Cookies zu benutzen die Geräte Bezeichnung, den Web oder ähnliche Technologien zu benutzen. Deine Settings, können in deinem Gerät bei deinem Browser geändert werden.

Für den bestimmten Zweck, berechtigten Interessen beruhen darauf, mehr als auf den Inhalt. Du kannst mehr darüber in unseren Privaten und Cookie Politik lesen.